UAE180 EPWA-OMDB

Flight info

Callsign UAE180
Flight time N/A
Altitude 33000
Route XIMBA N195 NATEV DCT PODAN/N0480F360 DCT KEKED/N0483F350 DCT BADOR DCT RONBU DCT ARTAT UP975 TEPKI/N0489F370 UP975 ERGUN UL124 EVSAS UM688 RATVO M688 KEDIM DCT SISIN M688 SIDAD P975 SESRU M677 VUTEB
Aircraft B77W/H-SDE1E2E3FGHIJ2J3J4J5M1RWXY/LB1D1

Departure

Time 2026-05-03 20:19
Airport Warsaw Chopin Airport (EPWA)

Arrival

Time N/A
Airport Dubai International Airport (OMDB)
Time Latitude Longitude Altitude Speed Heading
2026-05-03 20:15 52.17442 20.96421 354 ft 8 kts 244°
2026-05-03 20:15 52.17462 20.96342 349 ft 8 kts 317°
2026-05-03 20:15 52.17510 20.96294 351 ft 8 kts 332°
2026-05-03 20:15 52.17561 20.96254 355 ft 8 kts 336°
2026-05-03 20:16 52.17610 20.96209 355 ft 8 kts 328°
2026-05-03 20:16 52.17659 20.96163 351 ft 8 kts 330°
2026-05-03 20:16 52.17709 20.96118 351 ft 8 kts 331°
2026-05-03 20:16 52.17759 20.96074 353 ft 8 kts 332°
2026-05-03 20:17 52.17803 20.96016 352 ft 8 kts 309°
2026-05-03 20:17 52.17835 20.95939 353 ft 8 kts 302°
2026-05-03 20:17 52.17866 20.95860 349 ft 8 kts 302°
2026-05-03 20:17 52.17892 20.95778 354 ft 8 kts 283°
2026-05-03 20:18 52.17879 20.95687 350 ft 9 kts 242°
2026-05-03 20:18 52.17849 20.95622 353 ft 6 kts 206°
2026-05-03 20:18 52.17807 20.95636 353 ft 6 kts 153°
2026-05-03 20:18 52.17730 20.95701 354 ft 26 kts 152°
2026-05-03 20:19 52.17351 20.96030 352 ft 99 kts 152°
2026-05-03 20:19 52.16543 20.96738 355 ft 162 kts 152°
2026-05-03 20:19 52.15427 20.97724 540 ft 191 kts 152°
2026-05-03 20:19 52.14251 20.98751 1187 ft 195 kts 154°
2026-05-03 20:20 52.13042 20.99790 1860 ft 197 kts 158°
2026-05-03 20:20 52.11776 21.00699 2283 ft 206 kts 171°
2026-05-03 20:20 52.10294 21.01201 2468 ft 231 kts 174°
2026-05-03 20:20 52.08641 21.01703 2896 ft 248 kts 173°
2026-05-03 20:21 52.06924 21.02256 3614 ft 255 kts 173°
2026-05-03 20:21 52.05195 21.02833 4412 ft 258 kts 172°
2026-05-03 20:21 52.03427 21.03433 5198 ft 262 kts 172°
2026-05-03 20:21 52.01611 21.04084 5791 ft 271 kts 166°
2026-05-03 20:22 51.99903 21.05505 6372 ft 282 kts 148°
2026-05-03 20:22 51.98284 21.07343 7104 ft 284 kts 148°
2026-05-03 20:22 51.96659 21.09164 7935 ft 283 kts 149°
2026-05-03 20:22 51.95031 21.10972 8735 ft 284 kts 149°
2026-05-03 20:23 51.93389 21.12782 9506 ft 286 kts 149°
2026-05-03 20:23 51.91732 21.14598 10241 ft 290 kts 149°
2026-05-03 20:23 51.90007 21.16477 10555 ft 310 kts 149°
2026-05-03 20:23 51.88143 21.18497 10765 ft 334 kts 149°
2026-05-03 20:24 51.86832 21.19917 10885 ft 350 kts 148°
2026-05-03 20:24 51.84742 21.22179 11202 ft 370 kts 148°
2026-05-03 20:24 51.82572 21.24529 11842 ft 381 kts 148°
2026-05-03 20:24 51.80351 21.26932 12703 ft 387 kts 148°
2026-05-03 20:25 51.78101 21.29363 13639 ft 391 kts 148°
2026-05-03 20:25 51.75825 21.31816 14510 ft 396 kts 148°
2026-05-03 20:25 51.73517 21.34301 15314 ft 402 kts 148°
2026-05-03 20:25 51.71169 21.36825 16093 ft 408 kts 148°
2026-05-03 20:26 51.68789 21.39380 16871 ft 414 kts 148°
2026-05-03 20:26 51.66373 21.41968 17691 ft 419 kts 148°
2026-05-03 20:26 51.63910 21.44548 18466 ft 425 kts 149°
2026-05-03 20:26 51.61355 21.47006 19134 ft 430 kts 151°
2026-05-03 20:27 51.58755 21.49427 19846 ft 434 kts 151°
2026-05-03 20:27 51.56166 21.51844 20549 ft 438 kts 150°
2026-05-03 20:27 51.53527 21.54342 21230 ft 443 kts 150°
2026-05-03 20:27 51.50863 21.56880 21890 ft 448 kts 150°
2026-05-03 20:28 51.48171 21.59450 22534 ft 453 kts 150°
2026-05-03 20:28 51.45454 21.62053 23201 ft 457 kts 149°
2026-05-03 20:28 51.42706 21.64685 23771 ft 463 kts 149°
2026-05-03 20:28 51.39924 21.67343 24305 ft 467 kts 149°
2026-05-03 20:29 51.37129 21.70007 24859 ft 469 kts 149°
2026-05-03 20:29 51.34309 21.72682 25427 ft 472 kts 149°
2026-05-03 20:29 51.31471 21.75367 25957 ft 475 kts 149°
2026-05-03 20:29 51.28614 21.78068 26466 ft 479 kts 149°
2026-05-03 20:30 51.25738 21.80785 26957 ft 482 kts 149°
2026-05-03 20:30 51.22748 21.83213 27331 ft 486 kts 160°
2026-05-03 20:30 51.19456 21.84462 27725 ft 489 kts 174°
2026-05-03 20:30 51.16049 21.84522 28204 ft 490 kts 186°
2026-05-03 20:31 51.12680 21.83699 28589 ft 491 kts 191°
2026-05-03 20:31 51.09293 21.82785 28904 ft 496 kts 190°
2026-05-03 20:31 51.05869 21.81910 29246 ft 500 kts 189°
2026-05-03 20:31 51.02413 21.81059 29640 ft 503 kts 189°
2026-05-03 20:32 50.98933 21.80222 29930 ft 507 kts 189°
2026-05-03 20:32 50.95433 21.79390 30051 ft 510 kts 189°
2026-05-03 20:32 50.91930 21.78562 30064 ft 508 kts 189°
2026-05-03 20:33 50.85002 21.78190 30066 ft 504 kts 170°
2026-05-03 20:33 50.81622 21.79607 30069 ft 504 kts 158°
2026-05-03 20:33 50.78490 21.82085 30064 ft 504 kts 146°
2026-05-03 20:33 50.75762 21.85487 30072 ft 502 kts 134°
2026-05-03 20:34 50.73521 21.89713 30069 ft 500 kts 122°
2026-05-03 20:34 50.72009 21.94600 30057 ft 494 kts 105°
2026-05-03 20:34 50.71422 21.99868 30063 ft 485 kts 89°
2026-05-03 20:34 50.71712 22.05115 30081 ft 477 kts 75°
2026-05-03 20:35 50.72794 22.10004 30080 ft 471 kts 60°
2026-05-03 20:35 50.74641 22.14223 30080 ft 466 kts 45°
2026-05-03 20:35 50.77114 22.17482 30080 ft 463 kts 31°
2026-05-03 20:35 50.80027 22.19604 30071 ft 461 kts 16°
2026-05-03 20:36 50.83150 22.20458 30070 ft 464 kts
2026-05-03 20:36 50.86401 22.20042 30085 ft 472 kts 349°
2026-05-03 20:36 50.89545 22.18446 30056 ft 479 kts 334°
2026-05-03 20:37 50.95024 22.12696 30064 ft 470 kts 326°
2026-05-03 20:37 51.00394 22.06793 30065 ft 469 kts 326°
2026-05-03 20:38 51.05785 22.00964 30062 ft 468 kts 327°
2026-05-03 20:38 51.11140 21.95224 29764 ft 463 kts 327°
2026-05-03 20:38 51.13787 21.92399 29376 ft 464 kts 327°
2026-05-03 20:39 51.16467 21.89537 29053 ft 464 kts 327°
2026-05-03 20:39 51.19144 21.86672 28820 ft 462 kts 326°
2026-05-03 20:39 51.21804 21.83818 28610 ft 460 kts 326°
2026-05-03 20:39 51.24447 21.80974 28411 ft 458 kts 326°
2026-05-03 20:40 51.27081 21.78134 28181 ft 456 kts 326°
2026-05-03 20:40 51.29704 21.75301 27954 ft 455 kts 326°
2026-05-03 20:40 51.32319 21.72472 27739 ft 453 kts 326°
2026-05-03 20:40 51.34903 21.69666 27394 ft 446 kts 326°
2026-05-03 20:41 51.37462 21.66877 26834 ft 444 kts 326°
2026-05-03 20:41 51.40014 21.64094 26256 ft 443 kts 326°
2026-05-03 20:41 51.42555 21.61321 25760 ft 440 kts 326°
2026-05-03 20:41 51.45083 21.58562 25323 ft 437 kts 326°
2026-05-03 20:42 51.47587 21.55831 24876 ft 434 kts 325°
2026-05-03 20:42 51.50074 21.53115 24436 ft 431 kts 325°
2026-05-03 20:42 51.52546 21.50411 24000 ft 428 kts 325°